DELTA 1 DEB, 21372

Orbit data source: Space-Track

DELTA 1 DEB, 21372 is space debris in SSO originally from a launch on Thu, 12 Jun 1975 UTC launched from the Air Force Western Test Range (AFWTR). Debris objects in space refer to the collection of defunct objects orbiting the Earth. Examples of debris include non-operational satellites, rocket bodies, and fragments generated from explosions, collisions, or faulty payload assembly.

Loading next visibility...
Identifier
21372, 1975-052CS
Orbit
SSO
Country
Flag of USUS
Related business
Manufacturer
Unknown
Mission
Spacecraft
Bus & Motor
Unknown
Mass
Unknown
Launch date (UTC)
1975-06-12 (51 years ago)
Launch vehicle
Unknown
Launch site
Air Force Western Test Range (AFWTR)
Object type
Payload
Rocket body
Debris
Shape & HBR
Unknown shape, 0.1 m
Radar Cross Section
Small (<0.1 m²)

Expand to show TLE details & history
Last TLE update: 11 hours ago

TLE from 11 hours ago
0 DELTA 1 DEB
1 21372U 75052CS  25353.98323970  .00000017  00000-0  12414-3 0  9996
2 21372 100.2208 255.3796 0061612   1.3646  21.5192 13.33570171682279
Epoch: 2025-12-19T23:35Z
TLE epoch observation values (Epoch: 2025-12-19T23:35:51.910Z)
Latitude
22.77516°
Longitude
168.27759°
Altitude
1,092.918 km
Speed
7.329 km/s
True Right ascension
16h 44m 14s
True Declination
22° 39' 29"
Sunlit
Object was in daylight at epoch
Visualization orbit readout
Latitude
Unknown
Longitude
Unknown
Altitude
Unknown
Speed
Unknown
Apparent Right ascension
Unknown
Apparent Declination
Unknown
Sunlit
N/A
Visualization observer readout
Local Sidereal Time
09:15:32
Azimuth
Unknown
Elevation
Unknown
Doppler factor
Unknown
Orbital elements
Apogee altitude
1,176.941 km
Perigee altitude
1,084.414 km
Semi-major axis
7,508.814 km
Eccentricity
0.00616
Inclination
100.2208°
RAAN
255.3796°
Arg. of periapsis
1.3646°
True anomaly
21.78005°
Mean anomaly
21.5192°
Eccentric anomaly
21.64944°
Mean motion
3.33569 °/min
Orbital period
107.92 mins
BSTAR
0.00012414
Loading maneuver chart data...
Computing Atmospheric mass density...
Loading historical data...
Loading historical data...
Loading historical data...
Loading historical data...
Loading historical data...
Loading historical data...
Loading historical data...

Documentation

Showing up to 5 results
|